Location: Bessat
(45.8735°N, 1.9924°E)
Time: 04:49:05
(UTC+00:00)

CZ-2C R/B - Pass Details

Date: 11 May 2021
Orbit: 640 x 704 km, 98.3° (Epoch: 14 June)

Event Time Altitude Azimuth Distance (km) Brightness Sun altitude
Rises 21:09:01 0° 10° (N) 2,971 7.7 -16.6°
Reaches altitude 10° 21:11:14 10° 6° (N) 2,063 6.9 -16.8°
Maximum altitude 21:15:38 58° 288° (WNW) 769 4.3 -17.3°
Drops below altitude 10° 21:20:05 10° 210° (SSW) 2,081 6.0 -17.7°
Enters shadow 21:20:49 - 208° (SSW) 2,371 6.3 -17.8°
